Ionia, MI

3:35 PM EST on November 22, 2019 (GMT -0500)
Ionia

Weather History for KY70 - September, 2019

Change the Weather History Date:

Friday, September 20, 2019

  Actual Average (WUND) Record (WUND)
Temperature  
Mean Temperature 72 °F -  
Max Temperature 84 °F - - (-1)
Min Temperature 59 °F - - (-1)
Cooling Degree Days 6    
Growing Degree Days 22 (Base 50)    
Moisture  
Dew Point 60 °F    
Average Humidity 73    
Maximum Humidity 95    
Minimum Humidity 35    
Precipitation  
Precipitation 0.00 in - - ()
Sea Level Pressure  
Sea Level Pressure 30.13 in    
Wind  
Wind Speed 1 mph ()    
Max Wind Speed 7 mph    
Max Gust Speed -    
Visibility 9.8 miles    
Events      
Averages and records for this station are not official NWS values.
T = Trace of Precipitation, MM = Missing Value Source: Averaged Metar Reports

Daily Weather History Graph

Daily Weather History Graph

Search for Another Location

Airport or City:

Astronomy

Sep. 20, 2019 Rise Set
Actual Time 7:25 AM EDT 7:41 PM EDT
Civil Twilight 6:56 AM EDT 8:09 PM EDT
Nautical Twilight 6:23 AM EDT 8:43 PM EDT
Astronomical Twilight 5:49 AM EDT 9:17 PM EDT
Moon 11:21 PM EDT (9/20) 1:37 PM EDT (9/20)
Length of Visible Light 13h 13m
Length of Day
12h 16m
Waning Gibbous, 65% of the Moon is Illuminated
Sep 20
Waning Gibbous
Sep 21
Last Quarter
Sep 28
New
Oct 5
First Quarter
Oct 13
Full

Hourly Weather History & Observations

Time (EDT) Temp. Heat Index Dew Point Humidity Pressure Visibility Wind Dir Wind Speed Gust Speed Precip Events Conditions
12:16 AM 66.4 °F - 56.5 °F 70% 30.11 in 10.0 mi Calm Calm - N/A   Clear
12:35 AM 65.1 °F - 57.2 °F 75% 30.12 in 10.0 mi Calm Calm - N/A   Clear
12:55 AM 63.9 °F - 58.1 °F 81% 30.12 in 10.0 mi Calm Calm - N/A   Clear
12:56 AM 63.9 °F - 57.9 °F 81% 30.12 in 10.0 mi Calm Calm - N/A   Clear
1:19 AM 63.5 °F - 58.5 °F 84% 30.11 in 10.0 mi SE 3.5 mph - N/A   Clear
1:37 AM 64.2 °F - 58.1 °F 80% 30.12 in 10.0 mi Calm Calm - N/A   Clear
1:55 AM 63.0 °F - 58.8 °F 86% 30.12 in 10.0 mi SE 3.5 mph - N/A   Clear
2:15 AM 62.8 °F - 58.1 °F 85% 30.12 in 10.0 mi ESE 3.5 mph - N/A   Clear
2:16 AM 62.8 °F - 58.3 °F 85% 30.12 in 10.0 mi ESE 3.5 mph - N/A   Clear
2:35 AM 62.8 °F - 58.1 °F 85% 30.12 in 10.0 mi Calm Calm - N/A   Clear
2:40 AM 63.3 °F - 58.1 °F 83% 30.12 in 10.0 mi SE 3.5 mph - N/A   Clear
2:58 AM 62.6 °F - 58.1 °F 85% 30.12 in 10.0 mi SE 3.5 mph - N/A   Clear
3:16 AM 62.1 °F - 58.3 °F 87% 30.12 in 10.0 mi Calm Calm - N/A   Clear
3:35 AM 62.2 °F - 58.5 °F 87% 30.11 in 10.0 mi Calm Calm - N/A   Clear
3:55 AM 61.0 °F - 58.5 °F 91% 30.11 in 10.0 mi Calm Calm - N/A   Clear
4:19 AM 61.0 °F - 58.5 °F 91% 30.12 in 10.0 mi Calm Calm - N/A   Clear
4:37 AM 60.3 °F - 58.5 °F 94% 30.12 in 10.0 mi Calm Calm - N/A   Clear
4:55 AM 59.9 °F - 58.1 °F 94% 30.12 in 7.0 mi Calm Calm - N/A   Clear
5:15 AM 59.0 °F - 57.6 °F 95% 30.12 in 7.0 mi Calm Calm - N/A   Clear
5:16 AM 59.0 °F - 57.4 °F 94% 30.12 in 7.0 mi Calm Calm - N/A   Clear
5:35 AM 59.9 °F - 58.5 °F 95% 30.12 in 10.0 mi Calm Calm - N/A   Clear
5:40 AM 60.8 °F - 59.2 °F 94% 30.12 in 10.0 mi Calm Calm - N/A   Clear
5:58 AM 60.6 °F - 59.0 °F 94% 30.12 in 10.0 mi Calm Calm - N/A   Clear
6:16 AM 60.1 °F - 57.9 °F 93% 30.12 in 10.0 mi Calm Calm - N/A   Clear
6:35 AM 60.6 °F - 58.8 °F 94% 30.13 in 10.0 mi Calm Calm - N/A   Clear
6:55 AM 60.8 °F - 59.0 °F 94% 30.13 in 10.0 mi ESE 3.5 mph - N/A   Clear
7:18 AM 61.0 °F - 59.2 °F 94% 30.14 in 10.0 mi Calm Calm - N/A   Scattered Clouds
7:36 AM 60.6 °F - 59.0 °F 94% 30.14 in 10.0 mi Calm Calm - N/A   Clear
7:55 AM 62.2 °F - 60.1 °F 93% 30.14 in 10.0 mi Calm Calm - N/A   Scattered Clouds
8:15 AM 61.7 °F - 59.7 °F 93% 30.14 in 10.0 mi Calm Calm - N/A   Scattered Clouds
8:16 AM 61.7 °F - 59.9 °F 94% 30.15 in 10.0 mi Calm Calm - N/A   Scattered Clouds
8:39 AM 62.1 °F - 60.3 °F 94% 30.15 in 7.0 mi Calm Calm - N/A   Scattered Clouds
8:57 AM 63.3 °F - 61.5 °F 94% 30.15 in 7.0 mi Calm Calm - N/A   Scattered Clouds
9:15 AM 64.4 °F - 61.9 °F 92% 30.15 in 10.0 mi Calm Calm - N/A   Clear
9:35 AM 65.5 °F - 62.2 °F 89% 30.15 in 10.0 mi Calm Calm - N/A   Clear
9:36 AM 65.7 °F - 62.2 °F 89% 30.15 in 10.0 mi Calm Calm - N/A   Clear
9:55 AM 66.2 °F - 62.4 °F 88% 30.15 in 10.0 mi Calm Calm - N/A   Clear
10:00 AM 66.2 °F - 62.6 °F 88% 30.15 in 10.0 mi Calm Calm - N/A   Clear
10:18 AM 67.3 °F - 63.1 °F 87% 30.16 in 10.0 mi Calm Calm - N/A   Clear
10:36 AM 70.0 °F - 63.7 °F 80% 30.16 in 10.0 mi Calm Calm - N/A   Scattered Clouds
10:55 AM 72.5 °F - 64.0 °F 75% 30.16 in 10.0 mi Calm Calm - N/A   Clear
11:15 AM 75.4 °F - 64.2 °F 68% 30.16 in 10.0 mi Calm Calm - N/A   Mostly Cloudy
11:39 AM 77.9 °F - 62.2 °F 58% 30.16 in 10.0 mi Calm Calm - N/A   Scattered Clouds
11:57 AM 79.0 °F - 61.7 °F 55% 30.15 in 10.0 mi Calm Calm - N/A   Mostly Cloudy
12:15 PM 79.3 °F - 60.3 °F 52% 30.15 in 10.0 mi Calm Calm - N/A   Scattered Clouds
12:16 PM 79.3 °F - 60.4 °F 52% 30.15 in 10.0 mi Calm Calm - N/A   Scattered Clouds
12:35 PM 80.2 °F 80.5 °F 57.2 °F 45% 30.15 in 10.0 mi Calm Calm - N/A   Clear
12:36 PM 80.1 °F 80.4 °F 57.2 °F 45% 30.15 in 10.0 mi Calm Calm - N/A   Clear
12:55 PM 80.6 °F 80.7 °F 56.7 °F 44% 30.15 in 10.0 mi SE 3.5 mph - N/A   Clear
1:00 PM 80.6 °F 80.7 °F 56.8 °F 44% 30.15 in 10.0 mi Calm Calm - N/A   Clear
1:18 PM 80.2 °F 80.5 °F 57.4 °F 45% 30.14 in 10.0 mi Calm Calm - N/A   Clear
1:36 PM 80.1 °F 80.4 °F 57.0 °F 45% 30.13 in 10.0 mi Calm Calm - N/A   Clear
1:55 PM 79.9 °F - 57.4 °F 46% 30.13 in 10.0 mi Calm Calm - N/A   Clear
2:15 PM 81.9 °F 81.9 °F 58.5 °F 45% 30.12 in 10.0 mi Calm Calm - N/A   Clear
2:16 PM 81.9 °F 81.9 °F 58.5 °F 45% 30.12 in 10.0 mi Calm Calm - N/A   Clear
2:39 PM 81.1 °F 81.4 °F 58.6 °F 46% 30.12 in 10.0 mi Calm Calm - N/A   Clear
2:57 PM 81.5 °F 81.5 °F 57.7 °F 44% 30.12 in 10.0 mi Calm Calm - N/A   Clear
3:15 PM 82.6 °F 82.3 °F 57.7 °F 43% 30.11 in 10.0 mi Calm Calm - N/A   Clear
3:16 PM 82.6 °F 82.3 °F 57.9 °F 43% 30.11 in 10.0 mi Calm Calm - N/A   Clear
3:35 PM 83.5 °F 82.2 °F 53.6 °F 36% 30.11 in 10.0 mi South 5.8 mph - N/A   Clear
3:55 PM 83.8 °F 82.4 °F 53.4 °F 35% 30.11 in 10.0 mi SW 5.8 mph - N/A   Clear
4:18 PM 83.7 °F 82.5 °F 54.7 °F 37% 30.11 in 10.0 mi WSW 4.6 mph - N/A   Clear
4:36 PM 84.2 °F 83.5 °F 57.4 °F 40% 30.11 in 10.0 mi South 6.9 mph - N/A   Clear
4:55 PM 83.5 °F 82.9 °F 57.6 °F 41% 30.11 in 10.0 mi SW 4.6 mph - N/A   Scattered Clouds
4:56 PM 83.5 °F 82.9 °F 57.7 °F 41% 30.11 in 10.0 mi Calm Calm - N/A   Scattered Clouds
5:15 PM 83.3 °F 83.1 °F 58.5 °F 43% 30.11 in 10.0 mi SSW 5.8 mph - N/A   Scattered Clouds
5:16 PM 83.3 °F 82.9 °F 58.3 °F 42% 30.11 in 10.0 mi SSW 4.6 mph - N/A   Scattered Clouds
5:39 PM 82.6 °F 82.5 °F 58.6 °F 44% 30.11 in 10.0 mi SW 4.6 mph - N/A   Scattered Clouds
5:57 PM 83.3 °F 83.1 °F 58.6 °F 43% 30.11 in 10.0 mi South 3.5 mph - N/A   Clear
6:15 PM 82.6 °F 82.6 °F 59.2 °F 45% 30.11 in 10.0 mi SSW 4.6 mph - N/A   Clear
6:35 PM 81.7 °F 82.4 °F 61.5 °F 50% 30.12 in 10.0 mi SW 3.5 mph - N/A   Scattered Clouds
6:55 PM 81.0 °F 82.1 °F 62.6 °F 53% 30.12 in 10.0 mi SW 3.5 mph - N/A   Scattered Clouds
7:00 PM 80.6 °F 81.8 °F 62.6 °F 54% 30.12 in 10.0 mi SW 3.5 mph - N/A   Clear
7:18 PM 79.3 °F - 62.6 °F 56% 30.12 in 10.0 mi Calm Calm - N/A   Clear
7:36 PM 75.9 °F - 65.1 °F 69% 30.12 in 10.0 mi Calm Calm - N/A   Clear
7:55 PM 73.4 °F - 66.2 °F 78% 30.12 in 10.0 mi Calm Calm - N/A   Clear
8:15 PM 71.8 °F - 66.2 °F 83% 30.12 in 10.0 mi Calm Calm - N/A   Clear
8:39 PM 73.4 °F - 65.5 °F 76% 30.13 in 10.0 mi Calm Calm - N/A   Clear
8:57 PM 72.3 °F - 65.1 °F 78% 30.13 in 10.0 mi Calm Calm - N/A   Clear
9:15 PM 69.4 °F - 65.5 °F 87% 30.14 in 10.0 mi Calm Calm - N/A   Clear
9:16 PM 69.4 °F - 65.5 °F 87% 30.13 in 10.0 mi Calm Calm - N/A   Clear
9:35 PM 68.9 °F - 65.5 °F 89% 30.13 in 10.0 mi Calm Calm - N/A   Clear
9:36 PM 68.9 °F - 65.5 °F 89% 30.13 in 10.0 mi Calm Calm - N/A   Clear
9:55 PM 68.0 °F - 65.7 °F 92% 30.13 in 10.0 mi Calm Calm - N/A   Clear
10:18 PM 68.9 °F - 66.0 °F 90% 30.14 in 10.0 mi Calm Calm - N/A   Clear
10:36 PM 68.7 °F - 65.7 °F 90% 30.14 in 10.0 mi Calm Calm - N/A   Clear
10:55 PM 68.5 °F - 64.8 °F 88% 30.14 in 10.0 mi SSE 4.6 mph - N/A   Clear
10:56 PM 68.4 °F - 64.6 °F 88% 30.14 in 10.0 mi SSE 4.6 mph - N/A   Clear
11:15 PM 66.2 °F - 64.0 °F 93% 30.14 in 7.0 mi SSE 4.6 mph - N/A   Clear
11:39 PM 67.1 °F - 64.9 °F 93% 30.14 in 10.0 mi Calm Calm - N/A   Clear
11:57 PM 67.3 °F - 64.8 °F 92% 30.14 in 10.0 mi Calm Calm - N/A   Clear